ETH124 FOOL-FOON

Flight info

Callsign ETH124
Flight time N/A
Altitude 21000
Route DEKER
Aircraft A35K/H-SDE2E3GHIJ3J4J5LM1ORWXY/LB1D1

Departure

Time 2026-04-18 22:47
Airport Libreville Leon M'ba International Airport (FOOL)

Arrival

Time N/A
Airport M'Vengue El Hadj Omar Bongo Ondimba International Airport (FOON)
Time Latitude Longitude Altitude Speed Heading
2026-04-18 20:45 0.46122 9.40916 44 ft 0 kts 248°
2026-04-18 22:28 0.46121 9.40914 43 ft 0 kts 248°
2026-04-18 22:28 0.46120 9.40910 43 ft 0 kts 248°
2026-04-18 22:31 0.46119 9.40907 43 ft 0 kts 248°
2026-04-18 22:31 0.46119 9.40908 43 ft 1 kts 248°
2026-04-18 22:31 0.46123 9.40919 30 ft 3 kts 247°
2026-04-18 22:31 0.46127 9.40927 43 ft 1 kts 246°
2026-04-18 22:32 0.46129 9.40931 42 ft 2 kts 246°
2026-04-18 22:32 0.46135 9.40945 42 ft 2 kts 246°
2026-04-18 22:32 0.46135 9.40944 42 ft 0 kts 245°
2026-04-18 22:33 0.46134 9.40942 42 ft 2 kts 245°
2026-04-18 22:33 0.46133 9.40941 41 ft 0 kts 245°
2026-04-18 22:35 0.46131 9.40937 41 ft 1 kts 245°
2026-04-18 22:35 0.46130 9.40935 42 ft 0 kts 245°
2026-04-18 22:36 0.46129 9.40933 42 ft 1 kts 240°
2026-04-18 22:36 0.46126 9.40930 43 ft 2 kts 231°
2026-04-18 22:36 0.46078 9.40925 43 ft 4 kts 147°
2026-04-18 22:37 0.46043 9.40956 43 ft 9 kts 139°
2026-04-18 22:37 0.45983 9.41004 42 ft 13 kts 137°
2026-04-18 22:37 0.45895 9.41061 43 ft 17 kts 152°
2026-04-18 22:37 0.45818 9.41131 43 ft 13 kts 96°
2026-04-18 22:38 0.45866 9.41203 43 ft 11 kts
2026-04-18 22:38 0.45953 9.41179 42 ft 15 kts 340°
2026-04-18 22:38 0.46064 9.41135 43 ft 19 kts 336°
2026-04-18 22:38 0.46193 9.41075 44 ft 22 kts 332°
2026-04-18 22:39 0.46343 9.41001 44 ft 26 kts 334°
2026-04-18 22:39 0.46513 9.40916 46 ft 29 kts 334°
2026-04-18 22:39 0.46705 9.40825 45 ft 32 kts 334°
2026-04-18 22:39 0.46917 9.40723 44 ft 33 kts 334°
2026-04-18 22:40 0.47033 9.40651 44 ft 3 kts 40°
2026-04-18 22:40 0.47029 9.40663 44 ft 1 kts 116°
2026-04-18 22:40 0.47022 9.40666 43 ft 2 kts 146°
2026-04-18 22:40 0.47018 9.40668 43 ft 0 kts 148°
2026-04-18 22:46 0.46882 9.40743 45 ft 66 kts 153°
2026-04-18 22:47 0.46194 9.41070 45 ft 149 kts 154°
2026-04-18 22:47 0.45084 9.41594 406 ft 192 kts 155°
2026-04-18 22:47 0.43832 9.42212 1178 ft 216 kts 151°
2026-04-18 22:47 0.42591 9.43179 2055 ft 238 kts 136°
2026-04-18 22:48 0.41541 9.44539 2953 ft 258 kts 124°
2026-04-18 22:48 0.40564 9.46152 3488 ft 279 kts 120°
2026-04-18 22:48 0.39613 9.47901 3928 ft 298 kts 118°
2026-04-18 22:48 0.38653 9.49774 4578 ft 307 kts 117°
2026-04-18 22:49 0.37694 9.51696 5318 ft 311 kts 116°
2026-04-18 22:49 0.37042 9.53007 5816 ft 313 kts 116°